This demonstration page uses our WeatherBlox Daily Observations layout. Learn more.

Left ArrowRight Arrow

Hourly Observations for September 18, 2015

Temp ( °F °C ) Dew Point ( °F °C ) Humidity (%) Winds ( mph kmh ) Pressure ( in mb ) Visibility ( mi km ) Precip ( " mm )
12:51 am 00:51 Clear 77 25 51 10.6 40 40 NW 7 11 29.76 1008 10 16.0934 0 0
1:51 am 01:51 Clear 74 23.3 50 10 43 43 NW 8 13 29.76 1008 10 16.0934 0 0
2:51 am 02:51 Clear 73 22.8 50 10 44 44 WNW 6 9 29.76 1008 10 16.0934 0 0
3:51 am 03:51 Clear 70 21.1 49 9.4 47 47 Calm 29.77 1008 10 16.0934 0 0
4:51 am 04:51 Clear 68 20 51 10.6 55 55 Calm 29.78 1008 10 16.0934 0 0
5:51 am 05:51 Clear 66 18.9 50 10 56 56 E 3 6 29.8 1009 10 16.0934 0 0
6:51 am 06:51 Sunny 70 21.1 52 11.1 53 53 Calm 29.82 1010 10 16.0934 0 0
7:51 am 07:51 Sunny 75 23.9 51 10.6 43 43 SE 5 7 29.82 1010 10 16.0934 0 0
8:51 am 08:51 Sunny 79 26.1 52 11.1 39 39 W 5 7 29.83 1010 10 16.0934 0 0
9:51 am 09:51 Sunny 84 28.9 51 10.6 32 32 Calm 29.82 1010 10 16.0934 0 0
10:51 am 10:51 Sunny 87 30.6 50 10 28 28 WNW 5 7 29.81 1009 10 16.0934 0 0
11:51 am 11:51 Sunny 90 32.2 52 11.1 27 27 WNW 5 7 29.77 1008 10 16.0934 0 0
12:51 pm 12:51 Sunny 93 33.9 53 11.7 26 26 W 7 11 29.74 1007 10 16.0934 0 0
1:51 pm 13:51 Sunny 94 34.4 52 11.1 24 24 W 8 13 29.71 1006 10 16.0934 0 0
2:51 pm 14:51 Sunny 95 35 51 10.6 23 23 W 9 15 29.7 1006 10 16.0934 0 0
3:51 pm 15:51 Sunny 96 35.6 50 10 21 21 W 10 17 29.68 1005 10 16.0934 0 0
4:51 pm 16:51 Sunny 94 34.4 50 10 22 22 NW 15 24 29.67 1005 10 16.0934 0 0
5:51 pm 17:51 Sunny 92 33.3 46 7.8 21 21 NW 14 22 29.69 1006 10 16.0934 0 0
6:51 pm 18:51 Clear 89 31.7 43 6.1 20 20 NW 10 17 29.7 1006 10 16.0934 0 0
7:51 pm 19:51 Clear 85 29.4 44 6.7 24 24 NNW 7 11 29.72 1006 10 16.0934 0 0
8:51 pm 20:51 Clear 84 28.9 43 6.1 24 24 NW 9 15 29.72 1007 10 16.0934 0 0
9:51 pm 21:51 Clear 82 27.8 45 7.2 27 27 WNW 9 15 29.72 1006 10 16.0934 0 0
10:51 pm 22:51 Clear 79 26.1 45 7.2 30 30 NW 7 11 29.72 1006 10 16.0934 0 0
11:51 pm 23:51 Clear 78 25.6 44 6.7 30 30 NW 7 11 29.72 1006 10 16.0934 0 0

Powered by AerisWeather